{"data":{"norad_id":63713,"intl_designator":"2025-087S","name":"STARLINK-33773","alt_names":[],"object_type":"PAYLOAD","status":"ACTIVE","operator":null,"country":"US","launch_date":"2025-04-28","launch_site_code":"AFWTR","launch_vehicle":null,"mission":null,"orbit_class":"UNKNOWN","rcs_meters":null,"size_class":null,"mass_kg":null,"dimensions":null,"purposes":["comms"],"wikipedia_slug":null,"has_3d_model":false,"image_url":null,"decayed_at":null,"tle_current":{"epoch":"2026-09-20T20:18:13.345920Z","epoch_age_seconds":122947,"freshness":"FRESH","line1":"1 63713U 25087S   26263.84598780  .00015985  00000+0  52542-3 0  9998","line2":"2 63713  53.1594  31.3212 0000906  90.0572 270.0534 15.31720304 79103","mean_motion":15.31720304,"eccentricity":9.06e-5,"inclination_deg":53.1594,"raan_deg":31.3212,"arg_perigee_deg":90.0572,"mean_anomaly_deg":270.0534,"bstar":0.00052542,"rev_number":7910,"period_min":94.011941751998,"perigee_km":470.05896795452,"apogee_km":471.29997349902,"semimajor_km":6848.8164707268,"source":"CELESTRAK","updated_at":"2026-09-21T09:00:35.065624Z"}}}